Simultaneous Nadir Overpasses (SNOs) Predictions

Prediction of SNOs between GOES-16 and METOP-C Satellite Orbit:

Table of predicted SNOs for the next 14.0 days since TLE Epoch: 1/10/2025
Index Date Time (GOES-16) GOES-16 Lat,Lon METOP-C Lat,Lon Distance(km) Time Diff (sec)
1 01/11/2025 14:21:20 -0.02, -75.20 -0.66, -72.31 329.34 80
2 01/13/2025 02:40:22 0.01, -75.17 -0.36, -76.91 198.46 80
3 01/14/2025 02:17:03 0.01, -75.17 0.76, -71.92 370.73 80
4 01/15/2025 14:35:56 -0.01, -75.21 0.30, -76.48 144.67 80
5 01/16/2025 14:17:57 -0.00, -75.22 -0.83, -71.49 425.30 80
6 01/18/2025 02:36:58 -0.00, -75.21 -0.18, -76.09 100.62 80
7 01/19/2025 02:13:39 -0.00, -75.22 0.90, -71.09 469.71 80
8 01/20/2025 14:32:32 0.00, -75.28 0.08, -75.67 44.26 80
9 01/23/2025 02:30:54 0.00, -75.29 0.00, -75.27 1.56 80
